DW7013 Weather Reports


Display with metric or nautical units.
time (UTC)temp
F
wind
direction
speed
MPH
gust
MPH
rain 1hr
in
rain 24hr
in
rain mn
in
humidity
%
barometer
mb
20260904205718 70 19 0.0 0.0 0.00 0.00 0.00 63 1020.4
20260904204218 70 38 0.0 0.0 0.00 0.00 0.00 61 1020.4
20260904203721 70 44 0.0 0.0 0.00 0.00 0.00 61 1020.4
20260904203220 71 355 0.0 0.0 0.00 0.00 0.00 61 1020.4
20260904202728 71 351 0.0 0.0 0.00 0.00 0.00 61 1020.5
20260904202230 72 38 0.0 0.0 0.00 0.00 0.00 60 1020.5
20260904201725 72 63 0.0 0.0 0.00 0.00 0.00 59 1020.6
20260904200730 73 313 0.0 0.0 0.00 0.00 0.00 58 1020.4
20260904200210 73 313 0.0 2.0 0.00 0.00 0.00 57 1020.4
20260904195720 73 9 0.0 5.0 0.00 0.00 0.00 57 1020.4
20260904195231 74 150 0.0 11.0 0.00 0.00 0.00 57 1020.3
20260904194711 74 196 1.0 11.0 0.00 0.00 0.00 54 1020.3
20260904194216 74 309 1.0 11.0 0.00 0.00 0.00 55 1020.3
20260904193726 74 344 2.0 8.0 0.00 0.00 0.00 55 1020.3
20260904193212 74 13 3.0 13.0 0.00 0.00 0.00 56 1020.3
20260904191713 73 5 1.0 6.0 0.00 0.00 0.00 57 1020.3
20260904191219 73 71 0.0 6.0 0.00 0.00 0.00 58 1020.3
20260904190716 73 37 0.0 6.0 0.00 0.00 0.00 59 1020.1
20260904190215 73 328 0.0 0.0 0.00 0.00 0.00 58 1020.0
20260904185720 74 0 0.0 0.0 0.00 0.00 0.00 58 1020.0
20260904185224 74 103 0.0 0.0 0.00 0.00 0.00 58 1020.0
20260904184717 74 343 0.0 2.0 0.00 0.00 0.00 58 1019.9
20260904184218 74 80 0.0 2.0 0.00 0.00 0.00 57 1019.8
20260904183722 74 325 0.0 2.0 0.00 0.00 0.00 57 1019.9
20260904183219 74 53 0.0 0.0 0.00 0.00 0.00 56 1019.8
20260904182733 75 5 0.0 0.0 0.00 0.00 0.00 56 1019.7
20260904182220 75 182 0.0 0.0 0.00 0.00 0.00 56 1019.7
20260904181728 75 355 0.0 0.0 0.00 0.00 0.00 55 1019.7
20260904181223 76 276 0.0 0.0 0.00 0.00 0.00 55 1019.5
20260904180708 76 276 0.0 0.0 0.00 0.00 0.00 54 1019.5
20260904180210 76 12 0.0 0.0 0.00 0.00 0.00 53 1019.5
20260904175726 76 302 0.0 6.0 0.00 0.00 0.00 53 1019.4
20260904175213 77 5 0.0 7.0 0.00 0.00 0.00 52 1019.4
20260904173724 77 355 3.0 15.0 0.00 0.00 0.00 51 1019.3
20260904173225 77 355 3.0 15.0 0.00 0.00 0.00 50 1019.4
20260904172210 78 355 1.0 9.0 0.00 0.00 0.00 49 1019.3
20260904171721 78 329 2.0 13.0 0.00 0.00 0.00 48 1019.4
20260904171224 78 5 2.0 14.0 0.00 0.00 0.00 48 1019.4
20260904170712 78 41 4.0 14.0 0.00 0.00 0.00 48 1019.4
20260904170220 79 347 3.0 14.0 0.00 0.00 0.00 47 1019.4
20260904165723 79 355 2.0 18.0 0.00 0.00 0.00 47 1019.3
20260904165210 79 0 4.0 18.0 0.00 0.00 0.00 46 1019.3
20260904164710 80 293 7.0 18.0 0.00 0.00 0.00 46 1019.4
20260904164209 81 336 6.0 15.0 0.00 0.00 0.00 44 1019.4
20260904163721 82 51 3.0 13.0 0.00 0.00 0.00 43 1019.3
20260904163219 83 123 3.0 14.0 0.00 0.00 0.00 42 1019.3
20260904162719 83 355 3.0 18.0 0.00 0.00 0.00 43 1019.3
20260904162212 83 37 5.0 18.0 0.00 0.00 0.00 42 1019.3
20260904161726 83 80 5.0 18.0 0.00 0.00 0.00 41 1019.3
20260904161223 83 78 4.0 14.0 0.00 0.00 0.00 40 1019.2
20260904160717 83 344 3.0 15.0 0.00 0.00 0.00 40 1019.2
20260904155721 83 14 2.0 15.0 0.00 0.00 0.00 41 1019.1
20260904155226 83 5 2.0 9.0 0.00 0.00 0.00 40 1019.3
20260904154715 83 198 3.0 9.0 0.00 0.00 0.00 41 1019.2
20260904154220 83 150 2.0 8.0 0.00 0.00 0.00 41 1019.2
20260904153720 84 117 1.0 8.0 0.00 0.00 0.00 41 1019.2
20260904153229 84 136 1.0 8.0 0.00 0.00 0.00 40 1019.2
20260904152224 84 171 2.0 11.0 0.00 0.00 0.00 40 1019.2
20260904151713 85 150 3.0 11.0 0.00 0.00 0.00 39 1019.2
20260904151224 85 5 2.0 12.0 0.00 0.00 0.00 39 1019.3
20260904150730 85 107 3.0 12.0 0.00 0.00 0.00 38 1019.3
20260904150219 85 317 2.0 12.0 0.00 0.00 0.00 39 1019.3
20260904145229 84 153 2.0 10.0 0.00 0.00 0.00 40 1019.4
20260904144714 84 175 3.0 12.0 0.00 0.00 0.00 41 1019.3
20260904143718 83 117 4.0 12.0 0.00 0.00 0.00 42 1019.4
20260904143215 83 163 5.0 12.0 0.00 0.00 0.00 40 1019.4
20260904141218 83 183 4.0 11.0 0.00 0.00 0.00 41 1019.4
20260904140729 84 163 4.0 15.0 0.00 0.00 0.00 41 1019.5
20260904140215 83 135 6.0 15.0 0.00 0.00 0.00 42 1019.6
20260904135232 83 161 6.0 13.0 0.00 0.00 0.00 40 1019.6
20260904134726 84 161 5.0 13.0 0.00 0.00 0.00 40 1019.6
20260904134221 84 159 3.0 13.0 0.00 0.00 0.00 40 1019.7
20260904133724 86 192 2.0 13.0 0.00 0.00 0.00 39 1019.8
20260904133224 85 283 4.0 13.0 0.00 0.00 0.00 40 1019.9
20260904132208 85 355 1.0 11.0 0.00 0.00 0.00 39 1020.0
20260904130210 84 123 1.0 9.0 0.00 0.00 0.00 40 1020.1
20260904125726 83 73 2.0 11.0 0.00 0.00 0.00 40 1020.3
20260904125218 83 320 3.0 11.0 0.00 0.00 0.00 42 1020.4
20260904124223 83 350 3.0 13.0 0.00 0.00 0.00 41 1020.5
20260904123720 82 301 4.0 13.0 0.00 0.00 0.00 42 1020.6
20260904123220 82 165 5.0 13.0 0.00 0.00 0.00 41 1020.6
20260904122716 83 171 4.0 13.0 0.00 0.00 0.00 41 1020.5
20260904122230 82 113 4.0 15.0 0.00 0.00 0.00 43 1020.6
20260904121720 82 86 7.0 15.0 0.00 0.00 0.00 42 1020.6
20260904121224 81 167 8.0 18.0 0.00 0.00 0.00 43 1020.6
20260904120720 81 151 6.0 18.0 0.00 0.00 0.00 43 1020.6
20260904120220 82 163 5.0 18.0 0.00 0.00 0.00 43 1020.6
20260904115726 82 180 5.0 14.0 0.00 0.00 0.00 42 1020.6
20260904114723 82 142 6.0 14.0 0.00 0.00 0.00 43 1020.7
20260904114221 81 94 6.0 13.0 0.00 0.00 0.00 44 1020.8
20260904113723 81 175 6.0 13.0 0.00 0.00 0.00 43 1020.8
20260904113210 80 134 6.0 13.0 0.00 0.00 0.00 44 1020.8
20260904112718 80 159 5.0 13.0 0.00 0.00 0.00 43 1020.9
20260904112217 80 166 5.0 13.0 0.00 0.00 0.00 45 1020.9
20260904111726 79 130 5.0 13.0 0.00 0.00 0.00 44 1021.0
20260904111219 79 167 7.0 12.0 0.00 0.00 0.00 45 1021.1
20260904110729 79 178 7.0 12.0 0.00 0.00 0.00 45 1021.1
20260904110224 80 157 6.0 13.0 0.00 0.00 0.00 45 1021.0
20260904105728 79 162 6.0 14.0 0.00 0.00 0.00 45 1021.2
20260904105212 79 166 7.0 14.0 0.00 0.00 0.00 45 1021.3
20260904104728 78 170 7.0 14.0 0.00 0.00 0.00 46 1021.3
20260904104210 78 130 7.0 14.0 0.00 0.00 0.00 46 1021.4
20260904103720 78 142 7.0 14.0 0.00 0.00 0.00 46 1021.5
20260904103220 78 160 6.0 12.0 0.00 0.00 0.00 46 1021.4
20260904102722 78 106 7.0 12.0 0.00 0.00 0.00 47 1021.5
20260904102214 78 184 6.0 11.0 0.00 0.00 0.00 46 1021.7
20260904100730 77 157 5.0 10.0 0.00 0.00 0.00 47 1021.9
20260904100219 77 102 5.0 11.0 0.00 0.00 0.00 46 1022.0
20260904095224 76 190 5.0 9.0 0.00 0.00 0.00 48 1022.1
20260904094714 76 161 4.0 11.0 0.00 0.00 0.00 48 1022.1
20260904094215 76 144 4.0 11.0 0.00 0.00 0.00 48 1022.2
20260904093713 75 164 5.0 10.0 0.00 0.00 0.00 48 1022.2
20260904093219 75 181 5.0 10.0 0.00 0.00 0.00 49 1022.2
20260904092721 75 178 5.0 10.0 0.00 0.00 0.00 48 1022.3
20260904091711 75 173 4.0 10.0 0.00 0.00 0.00 50 1022.3
20260904091222 74 162 5.0 11.0 0.00 0.00 0.00 50 1022.3
20260904090717 74 113 5.0 11.0 0.00 0.00 0.00 49 1022.3
20260904090220 74 188 4.0 11.0 0.00 0.00 0.00 50 1022.4
20260904085714 73 167 5.0 9.0 0.00 0.00 0.00 51 1022.4
20260904085230 73 140 5.0 9.0 0.00 0.00 0.00 51 1022.5
20260904084720 73 187 4.0 8.0 0.00 0.00 0.00 52 1022.4
20260904084212 73 157 4.0 9.0 0.00 0.00 0.00 51 1022.4
20260904083230 72 176 5.0 10.0 0.00 0.00 0.00 52 1022.4
20260904082220 71 157 5.0 10.0 0.00 0.00 0.00 54 1022.5
20260904081720 71 161 5.0 8.0 0.00 0.00 0.00 54 1022.4
20260904081210 71 178 4.0 8.0 0.00 0.00 0.00 54 1022.4
20260904080744 70 176 2.0 5.0 0.00 0.00 0.00 56 1022.4
20260904080219 70 160 1.0 0.0 0.00 0.00 0.00 57 1022.5
20260904075717 70 167 0.0 0.0 0.00 0.00 0.00 59 1022.5
20260904075211 69 172 0.0 0.0 0.00 0.00 0.00 60 1022.5
20260904074714 69 191 0.0 0.0 0.00 0.00 0.00 61 1022.5
20260904074226 68 208 0.0 0.0 0.00 0.00 0.00 64 1022.6
20260904073216 67 205 0.0 0.0 0.00 0.00 0.00 67 1022.5
20260904072728 66 164 0.0 0.0 0.00 0.00 0.00 67 1022.5
20260904072229 65 85 0.0 0.0 0.00 0.00 0.00 69 1022.7
20260904070711 63 85 0.0 0.0 0.00 0.00 0.00 73 1022.8
20260904070221 62 85 0.0 0.0 0.00 0.00 0.00 75 1022.8
20260904065713 61 85 0.0 0.0 0.00 0.00 0.00 75 1022.8
20260904065215 60 85 0.0 0.0 0.00 0.00 0.00 76 1023.0
20260904064724 59 85 0.0 0.0 0.00 0.00 0.00 79 1023.1
20260904064212 58 85 0.0 0.0 0.00 0.00 0.00 79 1023.1
20260904063723 58 85 0.0 0.0 0.00 0.00 0.00 80 1023.1
20260904063216 57 85 0.0 0.0 0.00 0.00 0.00 82 1023.1
20260904061732 56 59 0.0 0.0 0.00 0.00 0.00 83 1023.1
20260904060724 55 59 0.0 0.0 0.00 0.00 0.00 83 1023.2
20260904060215 55 59 0.0 0.0 0.00 0.00 0.00 83 1023.2
20260904055218 55 59 0.0 0.0 0.00 0.00 0.00 83 1023.2
20260904054719 55 59 0.0 0.0 0.00 0.00 0.00 83 1023.3
20260904053724 55 59 0.0 0.0 0.00 0.00 0.00 83 1023.2
20260904053219 55 59 0.0 0.0 0.00 0.00 0.00 83 1023.2
20260904052726 55 59 0.0 0.0 0.00 0.00 0.00 83 1023.2
20260904052228 55 59 0.0 0.0 0.00 0.00 0.00 82 1023.2
20260904051722 55 59 0.0 0.0 0.00 0.00 0.00 82 1023.1
20260904050748 55 22 0.0 0.0 0.00 0.00 0.00 82 1023.3
20260904050223 55 22 0.0 0.0 0.00 0.00 0.00 82 1023.3
20260904045731 55 27 0.0 0.0 0.00 0.00 0.00 82 1023.3
20260904045223 55 27 0.0 0.0 0.00 0.00 0.00 82 1023.4
20260904044729 55 27 0.0 0.0 0.00 0.00 0.00 82 1023.3
20260904044220 55 27 0.0 0.0 0.00 0.00 0.00 81 1023.3
20260904043717 55 27 0.0 0.0 0.00 0.00 0.00 81 1023.3
20260904043221 55 27 0.0 0.0 0.00 0.00 0.00 81 1023.3
20260904042222 55 27 0.0 0.0 0.00 0.00 0.00 81 1023.4
20260904041729 55 27 0.0 0.0 0.00 0.00 0.00 81 1023.4
20260904041211 55 27 0.0 0.0 0.00 0.00 0.00 81 1023.4
20260904040714 55 27 0.0 0.0 0.00 0.00 0.00 81 1023.4
20260904040222 55 27 0.0 0.0 0.00 0.00 0.00 81 1023.6
20260904035225 56 27 0.0 0.0 0.00 0.00 0.00 81 1023.6
20260904034714 56 27 0.0 0.0 0.00 0.00 0.00 80 1023.7
20260904034214 56 27 0.0 0.0 0.00 0.00 0.00 80 1023.8
20260904033219 56 27 0.0 0.0 0.00 0.00 0.00 80 1023.8
20260904032708 56 27 0.0 0.0 0.00 0.00 0.00 80 1023.9
20260904032218 56 27 0.0 0.0 0.00 0.00 0.00 80 1023.9
20260904031722 56 27 0.0 0.0 0.00 0.00 0.00 80 1023.9
20260904030728 56 25 0.0 0.0 0.00 0.00 0.00 80 1023.8
20260904030218 56 355 0.0 0.0 0.00 0.00 0.00 79 1023.8
20260904025720 56 44 0.0 0.0 0.00 0.00 0.00 79 1023.8
20260904024720 56 51 0.0 0.0 0.00 0.00 0.00 79 1023.9
20260904024231 56 51 0.0 0.0 0.00 0.00 0.00 79 1024.0
20260904023723 56 51 0.0 0.0 0.00 0.00 0.00 79 1024.1
20260904022718 56 355 0.0 0.0 0.00 0.00 0.00 79 1024.3
20260904021749 56 342 0.0 0.0 0.00 0.00 0.00 78 1024.1
20260904021213 56 342 0.0 0.0 0.00 0.00 0.00 78 1024.4
20260904020716 56 90 0.0 0.0 0.00 0.00 0.00 78 1024.3
20260904020237 57 90 0.0 0.0 0.00 0.00 0.00 78 1024.3
20260904015731 57 96 0.0 0.0 0.00 0.00 0.00 78 1024.3
20260904015218 57 126 0.0 0.0 0.00 0.00 0.00 78 1024.3
20260904014722 57 40 0.0 0.0 0.00 0.00 0.00 78 1024.3
20260904013223 57 19 0.0 0.0 0.00 0.00 0.00 78 1024.5
20260904012721 57 19 0.0 0.0 0.00 0.00 0.00 77 1024.6
20260904012221 57 19 0.0 0.0 0.00 0.00 0.00 77 1024.6
20260904011208 58 269 0.0 0.0 0.00 0.00 0.00 77 1024.6
20260904010217 58 116 0.0 0.0 0.00 0.00 0.00 76 1024.6
20260904005727 58 105 0.0 0.0 0.00 0.00 0.00 76 1024.6
20260904005229 58 105 0.0 0.0 0.00 0.00 0.00 77 1024.6
20260904004727 58 105 0.0 0.0 0.00 0.00 0.00 76 1024.6
20260904004219 58 66 0.0 0.0 0.00 0.00 0.00 76 1024.7
20260904003719 58 67 0.0 0.0 0.00 0.00 0.00 76 1024.8
20260904003223 58 78 0.0 0.0 0.00 0.00 0.00 76 1024.8
20260904002714 58 215 0.0 0.0 0.00 0.00 0.00 76 1024.8
20260904002221 58 215 0.0 0.0 0.00 0.00 0.00 76 1024.9
20260904001718 58 217 0.0 0.0 0.00 0.00 0.00 76 1024.9
20260904001222 58 219 0.0 0.0 0.00 0.00 0.00 76 1025.0
20260904000725 58 63 0.0 0.0 0.00 0.00 0.00 76 1025.0
20260904000221 58 39 0.0 0.0 0.00 0.00 0.00 76 1025.0
20260903235727 58 0 0.0 0.0 0.00 0.00 0.00 76 1024.9
20260903235215 58 249 0.0 0.0 0.00 0.00 0.00 76 1024.9
20260903234716 59 249 0.0 0.0 0.00 0.00 0.00 75 1024.9
20260903234234 59 249 0.0 0.0 0.00 0.00 0.00 75 1024.9
20260903233721 59 140 0.0 0.0 0.00 0.00 0.00 76 1024.9
20260903232222 59 14 0.0 0.0 0.00 0.00 0.00 75 1025.1
20260903231707 59 14 0.0 0.0 0.00 0.00 0.00 75 1025.1
20260903230716 59 355 0.0 0.0 0.00 0.00 0.00 75 1025.2
20260903225718 59 350 0.0 0.0 0.00 0.00 0.00 75 1025.2
20260903225218 59 350 0.0 0.0 0.00 0.00 0.00 75 1025.3
20260903224722 59 350 0.0 0.0 0.00 0.00 0.00 75 1025.2
20260903223717 59 346 0.0 0.0 0.00 0.00 0.00 74 1025.3
20260903223218 59 329 0.0 0.0 0.00 0.00 0.00 74 1025.3
20260903222226 60 329 0.0 0.0 0.00 0.00 0.00 74 1025.3
20260903221723 60 329 0.0 0.0 0.00 0.00 0.00 74 1025.2
20260903220743 60 174 0.0 0.0 0.00 0.00 0.00 73 1025.2
20260903220211 60 12 0.0 0.0 0.00 0.00 0.00 73 1025.2
20260903215720 60 12 0.0 0.0 0.00 0.00 0.00 73 1025.2
20260903215226 60 12 0.0 0.0 0.00 0.00 0.00 72 1025.2
20260903213714 61 59 0.0 0.0 0.00 0.00 0.00 72 1025.2
20260903213217 61 329 0.0 0.0 0.00 0.00 0.00 72 1025.2
20260903212728 61 329 0.0 0.0 0.00 0.00 0.00 71 1025.2
20260903212223 61 329 0.0 0.0 0.00 0.00 0.00 71 1025.2
20260903210720 62 38 0.0 0.0 0.00 0.00 0.00 70 1025.4
20260903210227 62 17 0.0 0.0 0.00 0.00 0.00 70 1025.4